FW6744 Weather Reports


time (UTC)temp
C
wind
direction
speed
KPH
gust
KPH
rain 1hr
cm
rain 24hr
cm
rain mn
cm
humidity
%
barometer
mb
20260506163309 18 130 0.0 3.2 0.03 0.25 0.25 90 1007.3
20260506162808 17 175 0.0 1.6 0.03 0.25 0.25 90 1007.5
20260506162307 17 169 0.0 1.6 0.03 0.25 0.25 90 1007.2
20260506161805 17 347 0.0 1.6 0.03 0.25 0.25 91 1007.3
20260506161305 17 281 0.0 4.8 0.03 0.25 0.25 91 1007.2
20260506160759 17 30 0.0 4.8 0.00 0.23 0.23 90 1007.3
20260506160253 17 89 0.0 4.8 0.00 0.23 0.23 90 1007.4
20260506155747 17 165 0.0 4.8 0.00 0.23 0.23 91 1007.3
20260506155241 17 160 0.0 1.6 0.00 0.23 0.23 91 1007.1
20260506154734 17 153 0.0 1.6 0.00 0.23 0.23 91 1007.3
20260506154458 17 170 0.0 3.2 0.03 0.23 0.23 91 1007.4
20260506153928 17 152 0.0 1.6 0.10 0.23 0.23 91 1007.8
20260506153809 17 219 0.0 1.6 0.05 0.23 0.23 91 1007.6
20260506152712 17 161 0.0 1.6 0.13 0.23 0.23 92 1007.8
20260506152205 17 205 0.0 1.6 0.18 0.23 0.23 91 1007.8
20260506151659 17 214 0.0 1.6 0.20 0.23 0.23 91 1007.9
20260506151423 17 303 0.0 1.6 0.20 0.23 0.23 91 1008.0
20260506150647 17 151 0.0 1.6 0.20 0.23 0.23 91 1008.0
20260506150142 16 112 0.0 1.6 0.23 0.23 0.23 91 1008.0
20260506145635 16 112 0.0 1.6 0.23 0.23 0.23 91 1008.1
20260506145129 16 84 0.0 1.6 0.23 0.23 0.23 90 1008.2
20260506144623 16 80 0.0 1.6 0.23 0.23 0.23 89 1008.2
20260506144341 16 142 0.0 1.6 0.20 0.20 0.20 88 1008.3
20260506143610 17 141 0.0 1.6 0.15 0.15 0.15 87 1008.4
20260506143106 17 141 0.0 1.6 0.13 0.13 0.13 87 1008.5
20260506142559 17 194 0.0 1.6 0.10 0.10 0.10 86 1008.4
20260506142053 17 165 0.0 1.6 0.05 0.05 0.05 84 1008.3
20260506141547 17 167 0.0 1.6 0.03 0.03 0.03 83 1008.3
20260506141042 18 117 0.0 1.6 0.03 0.03 0.03 82 1008.2
20260506140752 18 162 0.0 4.8 0.03 0.03 0.03 82 1008.0
20260506140030 18 91 0.0 4.8 0.00 0.00 0.00 80 1008.1
20260506135524 18 148 0.0 4.8 0.00 0.00 0.00 78 1008.1
20260506135016 18 157 0.0 4.8 0.00 0.00 0.00 76 1008.2
20260506134511 18 209 0.0 4.8 0.00 0.00 0.00 74 1008.1
20260506134005 18 162 0.0 3.2 0.00 0.00 0.00 74 1008.1
20260506133726 18 206 0.0 3.2 0.00 0.00 0.00 74 1008.1
20260506132953 18 158 0.0 3.2 0.00 0.00 0.00 73 1008.0
20260506132447 18 155 1.6 6.4 0.00 0.00 0.00 73 1007.9
20260506131941 18 49 0.0 6.4 0.00 0.00 0.00 73 1007.9
20260506131435 18 134 0.0 6.4 0.00 0.00 0.00 74 1008.0
20260506130928 18 45 0.0 6.4 0.00 0.00 0.00 74 1007.9
20260506130423 18 219 0.0 3.2 0.00 0.00 0.00 75 1007.8
20260506125917 18 7 0.0 1.6 0.00 0.00 0.00 75 1007.9
20260506125411 18 160 0.0 3.2 0.00 0.00 0.00 75 1007.8
20260506124905 18 178 0.0 4.8 0.00 0.00 0.00 75 1007.8
20260506124359 18 219 0.0 4.8 0.00 0.00 0.00 75 1007.8
20260506124348 18 235 0.0 3.2 0.00 0.00 0.00 75 1007.9
20260506123347 18 62 0.0 3.2 0.00 0.00 0.00 74 1008.0
20260506122841 18 16 0.0 3.2 0.00 0.00 0.00 74 1007.8
20260506122335 18 226 0.0 3.2 0.00 0.00 0.00 74 1007.6
20260506121828 18 255 0.0 3.2 0.00 0.00 0.00 74 1007.7
20260506121541 18 165 0.0 4.8 0.00 0.00 0.00 74 1007.5
20260506120821 18 212 0.0 4.8 0.00 0.00 0.00 74 1007.5
20260506120320 18 217 1.6 6.4 0.00 0.00 0.00 74 1007.7
20260506115820 18 34 0.0 6.4 0.00 0.00 0.00 74 1007.7
20260506115320 18 126 0.0 1.6 0.00 0.00 0.00 75 1007.8
20260506114820 18 219 0.0 4.8 0.00 0.00 0.00 75 1007.8
20260506114321 18 110 0.0 4.8 0.00 0.00 0.00 75 1007.6
20260506114041 18 8 0.0 3.2 0.00 0.00 0.00 76 1007.6
20260506113537 18 155 0.0 6.4 0.00 0.00 0.00 76 1007.6
20260506113044 18 158 0.0 6.4 0.00 0.00 0.00 75 1007.6
20260506112321 18 67 0.0 1.6 0.00 0.00 0.00 76 1007.7
20260506112049 17 171 0.0 1.6 0.00 0.00 0.00 76 1007.6
20260506111319 17 205 0.0 1.6 0.00 0.00 0.00 76 1007.6
20260506110819 17 150 0.0 1.6 0.00 0.00 0.00 75 1007.5
20260506110319 17 173 0.0 1.6 0.00 0.00 0.00 75 1007.5
20260506105817 17 151 0.0 4.8 0.00 0.00 0.00 75 1007.6
20260506105320 17 39 0.0 4.8 0.00 0.00 0.00 75 1007.6
20260506104822 17 146 0.0 3.2 0.00 0.00 0.00 75 1007.7
20260506104807 17 157 0.0 3.2 0.00 0.00 0.00 75 1007.7
20260506103814 17 172 0.0 3.2 0.00 0.00 0.00 75 1007.8
20260506103537 17 153 0.0 1.6 0.00 0.00 0.00 75 1007.9
20260506102811 17 201 0.0 1.6 0.00 0.00 0.00 75 1008.0
20260506102314 17 223 0.0 1.6 0.00 0.00 0.00 75 1007.8
20260506101811 17 188 0.0 4.8 0.00 0.00 0.00 75 1007.7
20260506101308 17 242 0.0 4.8 0.00 0.00 0.00 75 1007.7
20260506100807 17 148 0.0 3.2 0.00 0.00 0.00 75 1007.6
20260506100309 17 177 0.0 1.6 0.00 0.00 0.00 75 1007.7
20260506095807 17 148 0.0 1.6 0.00 0.00 0.00 75 1007.7
20260506095307 17 143 0.0 3.2 0.00 0.00 0.00 75 1007.7
20260506094807 17 176 0.0 3.2 0.00 0.00 0.00 75 1007.5
20260506094305 17 197 0.0 3.2 0.00 0.00 0.00 75 1007.6
20260506093803 17 160 1.6 8.0 0.00 0.00 0.00 76 1007.5
20260506093306 17 353 0.0 8.0 0.00 0.00 0.00 76 1007.6
20260506092803 17 156 0.0 1.6 0.00 0.00 0.00 76 1007.5
20260506092256 17 224 0.0 4.8 0.00 0.00 0.00 76 1007.5
20260506092014 17 124 0.0 4.8 0.00 0.00 0.00 77 1007.5
20260506091255 17 71 0.0 1.6 0.00 0.00 0.00 77 1007.5
20260506091018 17 200 0.0 3.2 0.00 0.00 0.00 77 1007.6
20260506090254 17 188 0.0 3.2 0.00 0.00 0.00 77 1007.6
20260506085753 17 156 0.0 4.8 0.00 0.00 0.00 77 1007.6
20260506085517 17 155 0.0 4.8 0.00 0.00 0.00 77 1007.6
20260506084754 17 151 0.0 1.6 0.00 0.00 0.00 77 1007.7
20260506084253 17 349 0.0 1.6 0.00 0.00 0.00 77 1007.7
20260506084015 17 150 0.0 8.0 0.00 0.00 0.00 77 1007.9
20260506083254 17 154 0.0 8.0 0.00 0.00 0.00 77 1008.0
20260506082755 17 214 0.0 6.4 0.00 0.00 0.00 77 1007.9
20260506082254 17 160 0.0 1.6 0.00 0.00 0.00 77 1007.9
20260506081754 17 228 0.0 1.6 0.00 0.00 0.00 76 1007.9
20260506081516 18 167 0.0 0.0 0.00 0.00 0.00 76 1007.9
20260506080756 18 205 0.0 0.0 0.00 0.00 0.00 76 1007.9
20260506080254 18 163 0.0 3.2 0.00 0.00 0.00 76 1007.9
20260506073511 18 216 0.0 1.6 0.00 0.00 0.00 75 1008.1
20260506073014 18 103 0.0 3.2 0.00 0.00 0.00 75 1008.0
20260506072255 18 160 0.0 3.2 0.00 0.00 0.00 75 1008.0
20260506071755 18 150 0.0 3.2 0.00 0.00 0.00 74 1008.1
20260506071253 18 156 0.0 1.6 0.00 0.00 0.00 74 1008.1
20260506070755 18 169 0.0 1.6 0.00 0.00 0.00 74 1008.1
20260506070255 18 178 0.0 3.2 0.00 0.00 0.00 74 1008.0
20260506062244 18 179 0.0 3.2 0.00 0.00 0.00 74 1008.4
20260506061745 18 158 0.0 3.2 0.00 0.00 0.00 73 1008.3
20260506061241 19 161 0.0 1.6 0.00 0.00 0.00 73 1008.3
20260506061006 19 110 0.0 4.8 0.00 0.00 0.00 73 1008.3
20260506060238 19 215 0.0 4.8 0.00 0.00 0.00 72 1008.3
20260506051147 20 221 1.6 3.2 0.00 0.00 0.00 69 1008.6
20260506050912 20 186 1.6 3.2 0.00 0.00 0.00 68 1008.7
20260506050144 20 159 0.0 6.4 0.00 0.00 0.00 68 1008.9
20260506044640 20 217 0.0 4.8 0.00 0.00 0.00 68 1008.9
20260506044139 20 2 0.0 4.8 0.00 0.00 0.00 67 1009.0
20260506043640 20 217 1.6 4.8 0.00 0.00 0.00 67 1009.0
20260506043138 20 178 1.6 4.8 0.00 0.00 0.00 67 1009.1
20260506042638 20 192 1.6 4.8 0.00 0.00 0.00 66 1008.8
20260506042137 20 193 1.6 3.2 0.00 0.00 0.00 66 1009.0
20260506041854 21 160 0.0 3.2 0.00 0.00 0.00 65 1008.9
20260506041402 21 166 0.0 3.2 0.00 0.00 0.00 64 1008.9
20260506040634 21 127 1.6 6.4 0.00 0.00 0.00 64 1008.9
20260506040132 21 5 1.6 6.4 0.00 0.00 0.00 63 1008.9
20260506035630 21 146 0.0 3.2 0.00 0.00 0.00 63 1008.9
20260506035130 21 10 0.0 3.2 0.00 0.00 0.00 62 1008.8
20260506034632 21 150 0.0 3.2 0.00 0.00 0.00 61 1008.8
20260506034126 21 210 0.0 3.2 0.00 0.00 0.00 60 1008.8
20260506033627 21 157 0.0 3.2 0.00 0.00 0.00 60 1008.8
20260506033350 21 164 1.6 3.2 0.00 0.00 0.00 59 1008.9
20260506032625 21 150 1.6 6.4 0.00 0.00 0.00 59 1008.9
20260506032124 21 165 0.0 6.4 0.00 0.00 0.00 59 1008.9
20260506031624 21 152 0.0 4.8 0.00 0.00 0.00 58 1008.8
20260506031344 21 162 0.0 4.8 0.00 0.00 0.00 58 1008.8
20260506030849 22 146 0.0 4.8 0.00 0.00 0.00 57 1008.8
20260506030125 22 166 0.0 4.8 0.00 0.00 0.00 57 1008.7
20260506025621 22 153 0.0 3.2 0.00 0.00 0.00 57 1008.6
20260506025120 22 159 0.0 3.2 0.00 0.00 0.00 57 1008.8
20260506024620 22 160 0.0 3.2 0.00 0.00 0.00 56 1008.8
20260506024330 22 150 0.0 3.2 0.00 0.00 0.00 56 1008.8
20260506024216 22 164 0.0 3.2 0.00 0.00 0.00 56 1008.8
20260506023341 22 155 0.0 3.2 0.00 0.00 0.00 56 1008.9
20260506022620 22 188 0.0 1.6 0.00 0.00 0.00 55 1008.9
20260506022120 22 218 0.0 1.6 0.00 0.00 0.00 55 1008.9
20260506021844 22 234 0.0 0.0 0.00 0.00 0.00 55 1008.8
20260506021337 22 160 0.0 1.6 0.00 0.00 0.00 54 1008.9
20260506020616 22 160 0.0 1.6 0.00 0.00 0.00 54 1008.8
20260506020117 22 231 0.0 1.6 0.00 0.00 0.00 54 1008.8
20260506015615 22 148 0.0 1.6 0.00 0.00 0.00 54 1008.8
20260506015113 22 174 0.0 1.6 0.00 0.00 0.00 53 1008.7
20260506014613 23 214 0.0 3.2 0.00 0.00 0.00 53 1008.5
20260506014111 23 192 0.0 3.2 0.00 0.00 0.00 53 1008.5
20260506013612 23 155 0.0 3.2 0.00 0.00 0.00 52 1008.5
20260506013112 23 160 0.0 3.2 0.00 0.00 0.00 52 1008.4
20260506012608 23 161 0.0 3.2 0.00 0.00 0.00 52 1008.4
20260506012105 23 160 0.0 3.2 0.00 0.00 0.00 52 1008.3
20260506011607 23 156 0.0 3.2 0.00 0.00 0.00 51 1008.3
20260506011106 23 170 0.0 9.7 0.00 0.00 0.00 51 1008.2
20260506010605 23 156 0.0 9.7 0.00 0.00 0.00 51 1008.2
20260506010327 23 155 0.0 6.4 0.00 0.00 0.00 50 1008.2
20260506005604 23 159 0.0 6.4 0.00 0.00 0.00 50 1008.2
20260506005104 23 162 0.0 3.2 0.00 0.00 0.00 50 1008.1
20260506004604 23 160 0.0 1.6 0.00 0.00 0.00 50 1008.1
20260506004326 23 160 0.0 1.6 0.00 0.00 0.00 49 1008.0
20260506003601 23 168 0.0 4.8 0.00 0.00 0.00 49 1007.9
20260506003316 24 176 0.0 4.8 0.00 0.00 0.00 49 1007.9
20260506002548 24 185 0.0 3.2 0.00 0.00 0.00 48 1008.0
20260506002043 24 158 0.0 3.2 0.00 0.00 0.00 48 1007.9
20260506001537 24 141 0.0 1.6 0.00 0.00 0.00 48 1007.8
20260506001031 24 129 0.0 4.8 0.00 0.00 0.00 47 1007.8
20260506000525 25 147 0.0 4.8 0.00 0.00 0.00 47 1007.8
20260506000018 25 155 0.0 3.2 0.00 0.00 0.00 46 1007.7
20260505235512 25 160 0.0 3.2 0.00 0.00 0.00 46 1007.7
20260505235007 25 214 1.6 4.8 0.00 0.00 0.00 46 1007.7
20260505234501 25 229 0.0 4.8 0.00 0.00 0.00 45 1007.8
20260505233955 25 159 0.0 3.2 0.00 0.00 0.00 45 1007.6
20260505233449 25 46 0.0 3.2 0.00 0.00 0.00 44 1007.6
20260505232942 25 163 0.0 3.2 0.00 0.00 0.00 44 1007.6
20260505232437 25 153 0.0 3.2 0.00 0.00 0.00 44 1007.6
20260505231932 25 167 0.0 3.2 0.00 0.00 0.00 43 1007.7
20260505231425 26 226 0.0 3.2 0.00 0.00 0.00 43 1007.6
20260505231141 26 165 0.0 4.8 0.00 0.00 0.00 42 1007.6
20260505230413 26 329 1.6 9.7 0.00 0.00 0.00 41 1007.6
20260505230125 26 179 1.6 9.7 0.00 0.00 0.00 41 1007.6
20260505225624 26 250 1.6 6.4 0.00 0.00 0.00 41 1007.6
20260505225122 26 214 1.6 4.8 0.00 0.00 0.00 40 1007.5
20260505224622 27 168 1.6 4.8 0.00 0.00 0.00 40 1007.6
20260505223842 27 151 1.6 4.8 0.00 0.00 0.00 39 1007.7
20260505223336 27 160 1.6 4.8 0.00 0.00 0.00 38 1007.6
20260505222831 27 354 1.6 4.8 0.00 0.00 0.00 38 1007.7
20260505222326 28 46 0.0 8.0 0.00 0.00 0.00 37 1007.6
20260505221819 28 186 1.6 8.0 0.00 0.00 0.00 37 1007.6
20260505221313 28 194 1.6 6.4 0.00 0.00 0.00 36 1007.5
20260505220806 28 156 1.6 9.7 0.00 0.00 0.00 35 1007.5
20260505215754 28 270 1.6 6.4 0.00 0.00 0.00 33 1007.4
20260505215515 28 222 1.6 6.4 0.00 0.00 0.00 34 1007.5
20260505214743 28 236 1.6 6.4 0.00 0.00 0.00 32 1007.4
20260505214501 28 123 1.6 9.7 0.00 0.00 0.00 33 1007.3
20260505213955 28 215 1.6 9.7 0.00 0.00 0.00 31 1007.3
20260505213225 28 45 1.6 9.7 0.00 0.00 0.00 31 1007.4
20260505212719 29 206 1.6 11.3 0.00 0.00 0.00 30 1007.3
20260505212433 29 158 1.6 11.3 0.00 0.00 0.00 31 1007.3
20260505211932 29 196 1.6 6.4 0.00 0.00 0.00 32 1007.3
20260505211210 29 153 3.2 9.7 0.00 0.00 0.00 31 1007.4
20260505210710 29 110 3.2 11.3 0.00 0.00 0.00 29 1007.4
20260505210207 30 98 1.6 11.3 0.00 0.00 0.00 29 1007.5
20260505205707 29 205 1.6 9.7 0.00 0.00 0.00 29 1007.5
20260505205207 29 162 1.6 9.7 0.00 0.00 0.00 29 1007.4
20260505204706 29 238 3.2 11.3 0.00 0.00 0.00 30 1007.4
20260505204208 30 169 3.2 11.3 0.00 0.00 0.00 27 1007.4
20260505203705 30 193 3.2 8.0 0.00 0.00 0.00 28 1007.2
20260505203205 30 223 1.6 8.0 0.00 0.00 0.00 28 1007.4
20260505202710 30 165 1.6 6.4 0.00 0.00 0.00 27 1007.4
20260505202206 30 162 1.6 6.4 0.00 0.00 0.00 28 1007.2
20260505201705 30 209 3.2 9.7 0.00 0.00 0.00 28 1007.4
20260505201206 30 156 3.2 9.7 0.00 0.00 0.00 28 1007.4
20260505200705 31 149 1.6 9.7 0.00 0.00 0.00 28 1007.3
20260505200204 31 162 3.2 9.7 0.00 0.00 0.00 29 1007.5
20260505195706 31 203 3.2 8.0 0.00 0.00 0.00 29 1007.5
20260505195420 31 85 1.6 11.3 0.00 0.00 0.00 28 1007.6
20260505194701 31 154 1.6 11.3 0.00 0.00 0.00 29 1007.6
20260505194159 31 208 1.6 9.7 0.00 0.00 0.00 28 1007.7
20260505193700 31 214 1.6 4.8 0.00 0.00 0.00 29 1007.8
20260505193157 31 39 1.6 8.0 0.00 0.00 0.00 28 1007.8
20260505192657 31 158 3.2 8.0 0.00 0.00 0.00 29 1007.8
20260505192157 31 195 3.2 8.0 0.00 0.00 0.00 28 1007.9
20260505191658 31 156 1.6 8.0 0.00 0.00 0.00 29 1008.0
20260505191156 31 165 1.6 8.0 0.00 0.00 0.00 29 1008.0
20260505190659 31 214 1.6 6.4 0.00 0.00 0.00 29 1008.1
20260505190159 31 152 1.6 11.3 0.00 0.00 0.00 30 1008.2
20260505185656 31 174 3.2 11.3 0.00 0.00 0.00 31 1008.3
20260505185159 30 75 3.2 11.3 0.00 0.00 0.00 31 1008.4
20260505184658 30 346 3.2 8.0 0.00 0.00 0.00 30 1008.5
20260505184157 31 159 3.2 12.9 0.00 0.00 0.00 30 1008.5
20260505183656 30 163 3.2 14.5 0.00 0.00 0.00 31 1008.7
20260505183157 30 231 3.2 14.5 0.00 0.00 0.00 29 1008.7
20260505182656 31 226 3.2 12.9 0.00 0.00 0.00 31 1008.7
20260505182158 30 257 3.2 12.9 0.00 0.00 0.00 29 1008.8
20260505181658 30 171 3.2 17.7 0.00 0.00 0.00 30 1008.9
20260505181156 30 168 3.2 17.7 0.00 0.00 0.00 29 1008.8
20260505180658 30 265 3.2 8.0 0.00 0.00 0.00 28 1009.0
20260505180652 30 161 1.6 8.0 0.00 0.00 0.00 31 1009.1
20260505175927 30 322 3.2 9.7 0.00 0.00 0.00 30 1009.1
20260505175157 30 211 3.2 9.7 0.00 0.00 0.00 32 1009.2
20260505174657 30 231 1.6 9.7 0.00 0.00 0.00 32 1009.1
20260505174157 29 172 3.2 19.3 0.00 0.00 0.00 32 1009.1
20260505173657 29 232 3.2 19.3 0.00 0.00 0.00 35 1009.1
20260505173157 29 148 3.2 12.9 0.00 0.00 0.00 34 1009.1
20260505173142 30 239 1.6 12.9 0.00 0.00 0.00 36 1009.3
20260505172158 30 233 1.6 6.4 0.00 0.00 0.00 36 1009.4
20260505171656 29 190 1.6 8.0 0.00 0.00 0.00 37 1009.4
20260505171414 28 174 3.2 16.1 0.00 0.00 0.00 39 1009.4
20260505170656 28 210 1.6 16.1 0.00 0.00 0.00 37 1009.5
20260505170157 28 224 1.6 11.3 0.00 0.00 0.00 38 1009.7
20260505165925 29 145 1.6 8.0 0.00 0.00 0.00 39 1009.6
20260505165156 29 231 1.6 4.8 0.00 0.00 0.00 40 1009.7
20260505164656 28 191 1.6 11.3 0.00 0.00 0.00 41 1009.6
20260505164157 28 179 1.6 11.3 0.00 0.00 0.00 41 1009.7